Regional Weather Roundup
Issued by NWS

Home | Current Version | Previous Version | Graphics & Text | Print | Product List | Glossary Off
Versions: 1 2 3 4 5 6 7 8 9 10 11 12 13 14 15 16 17 18 19 20 21 22 23 24 25 26 27 28 29 30 31 32 33 34 35 36 37 38 39 40 41 42 43 44 45 46 47 48 49 50

088
ASUS43 KTOP 170859
RWRKS

WEATHER ROUNDUP FOR KANSAS
NATIONAL WEATHER SERVICE GOODLAND KS
300 AM CST TUE JAN 17 2017

NOTE:  "FAIR" INDICATES FEW OR NO CLOUDS BELOW 12,000 FEET WITH NO
SIGNIFICANT WEATHER AND/OR OBSTRUCTIONS TO VISIBILITY.

KSZ001>006-013>018-027>032-041>047-171000-
NORTHWEST KANSAS

CITY           SKY/WX    TMP DP  RH WIND       PRES   REMARKS
GOODLAND       CLOUDY    25  21  85 W9        30.09S
HAYS           CLOUDY    33  29  85 NW10      30.10R WCI  25
HILL CITY      MOCLDY    32  28  85 W8        30.10R
RUSSELL        PTCLDY    33  30  88 NW10      30.07R WCI  25
$$

KSZ061>065-074>080-084>089-171000-
SOUTHWEST KANSAS

CITY           SKY/WX    TMP DP  RH WIND       PRES   REMARKS
DODGE CITY     CLOUDY    33  30  88 NW13      30.10S WCI  24
ELKHART          N/A     32  25  76 NW12        N/A  WCI  23
GARDEN CITY    CLOUDY    34  29  82 NW14      30.12R WCI  25
GREAT BEND     CLOUDY    33  30  88 NW9       30.09R
LIBERAL        PTCLDY    34  27  75 NW8       30.12R
$$

KSZ066>073-081>083-090>101-171000-
SOUTHEAST KANSAS

CITY           SKY/WX    TMP DP  RH WIND       PRES   REMARKS
CHANUTE        CLOUDY    37  34  89 NW7       30.04R
HUTCHINSON     CLOUDY    35  32  88 W6        30.08R
MEDICINE LODGE   N/A     35  31  85 NW6       30.09S
NEWTON         CLOUDY    34  33  96 NW12      30.06R FOG     WCI  25
PARSONS        CLOUDY    38  35  89 NW10      30.06R WCI  31
WICHITA INTL   DRIZZLE   36  34  92 NW10      30.07R WCI  28
WICHITA JABRA  CLOUDY    34  34 100 NW10      30.06R WCI  26
WICHITA MCCONL CLOUDY    36  32  87 NW8       30.06R
WINFIELD       CLOUDY    36  34  92 NW10      30.09R WCI  28
$$

KSZ007>012-019>026-033>040-048>060-102>105-171000-
NORTHEAST KANSAS

CITY           SKY/WX    TMP DP  RH WIND       PRES   REMARKS
CONCORDIA      CLOUDY    32  30  92 NW14      30.04R WCI  22
EMPORIA        CLOUDY    34  33  96 NW12      30.03R FOG     WCI  25
LAWRENCE       CLOUDY    35  34  96 W8        30.03R FOG
MANHATTAN      CLOUDY    34  33  96 VRB3      30.04S
OLATHE IND     CLOUDY    35  33  92 W12       30.00R WCI  27
OLATHE EXE     CLOUDY    34  34 100 NW10G16   30.00R WCI  26
SALINA           N/A    N/A N/A N/A MISG        N/A
TOPEKA BILLARD CLOUDY    35  31  85 W9        30.02S
TOPEKA FORBES  CLOUDY    36  33  89 W9        30.02R
$$




USA.gov is the U.S. government's official web portal to all federal, state and local government web resources and services.